| time (UTC) | temp F | wind direction | speed MPH | gust MPH | rain 1hr in | rain 24hr in | rain mn in | humidity % | barometer mb |
| 20260506102127 | 40 | 13 | 5.0 | 8.0 | 0.02 | 0.95 | 0.64 | 84 | 1013.3 |
| 20260506101126 | 41 | 12 | 3.0 | 7.0 | 0.02 | 0.96 | 0.64 | 84 | 1013.4 |
| 20260506100627 | 41 | 10 | 3.0 | 7.0 | 0.02 | 0.97 | 0.64 | 84 | 1013.2 |
| 20260506100127 | 41 | 11 | 4.0 | 6.0 | 0.01 | 0.97 | 0.63 | 84 | 1013.3 |
| 20260506095627 | 41 | 9 | 5.0 | 7.0 | 0.00 | 0.96 | 0.62 | 84 | 1013.3 |
| 20260506094627 | 40 | 13 | 6.0 | 10.0 | 0.02 | 0.98 | 0.62 | 84 | 1013.2 |
| 20260506093126 | 40 | 13 | 4.0 | 12.0 | 0.04 | 1.00 | 0.62 | 84 | 1013.2 |
| 20260506092627 | 40 | 15 | 3.0 | 8.0 | 0.05 | 1.00 | 0.62 | 84 | 1013.3 |
| 20260506092126 | 40 | 14 | 4.0 | 9.0 | 0.05 | 1.01 | 0.62 | 84 | 1013.3 |
| 20260506090126 | 40 | 10 | 3.0 | 9.0 | 0.06 | 1.07 | 0.62 | 84 | 1013.1 |
| 20260506085627 | 41 | 16 | 5.0 | 9.0 | 0.09 | 1.07 | 0.62 | 84 | 1013.0 |
| 20260506084127 | 40 | 16 | 3.0 | 9.0 | 0.12 | 1.05 | 0.60 | 84 | 1012.9 |
| 20260506083127 | 40 | 13 | 6.0 | 10.0 | 0.13 | 1.03 | 0.58 | 84 | 1012.9 |
| 20260506082626 | 40 | 18 | 4.0 | 9.0 | 0.13 | 1.03 | 0.57 | 84 | 1012.9 |
| 20260506081627 | 40 | 15 | 4.0 | 9.0 | 0.14 | 1.05 | 0.57 | 84 | 1012.8 |
| 20260506081127 | 40 | 17 | 6.0 | 12.0 | 0.13 | 1.07 | 0.57 | 84 | 1012.8 |
| 20260506080627 | 40 | 15 | 5.0 | 9.0 | 0.14 | 1.08 | 0.56 | 84 | 1012.8 |
| 20260506080127 | 40 | 16 | 3.0 | 7.0 | 0.17 | 1.08 | 0.56 | 84 | 1012.8 |
| 20260506072126 | 39 | 16 | 6.0 | 9.0 | 0.30 | 0.98 | 0.45 | 84 | 1012.9 |
| 20260506071627 | 39 | 9 | 5.0 | 7.0 | 0.31 | 0.97 | 0.43 | 84 | 1013.0 |
| 20260506071126 | 39 | 14 | 2.0 | 9.0 | 0.31 | 0.97 | 0.43 | 84 | 1013.1 |
| 20260506070627 | 39 | 9 | 5.0 | 9.0 | 0.31 | 0.95 | 0.42 | 84 | 1013.0 |
| 20260506070127 | 39 | 16 | 2.0 | 12.0 | 0.30 | 0.92 | 0.39 | 84 | 1013.0 |
| 20260506062126 | 39 | 15 | 2.0 | 6.0 | 0.13 | 0.69 | 0.15 | 84 | 1012.9 |
| 20260506061627 | 39 | 17 | 4.0 | 8.0 | 0.12 | 0.66 | 0.13 | 84 | 1012.8 |
| 20260506061126 | 38 | 14 | 3.0 | 8.0 | 0.11 | 0.65 | 0.12 | 84 | 1012.8 |
| 20260506060627 | 38 | 11 | 4.0 | 8.0 | 0.10 | 0.64 | 0.10 | 84 | 1012.8 |
| 20260506060127 | 38 | 10 | 4.0 | 7.0 | 0.09 | 0.62 | 0.09 | 84 | 1012.8 |
| 20260506051126 | 40 | 12 | 1.0 | 3.0 | 0.01 | 0.54 | 0.01 | 84 | 1013.3 |
| 20260506050626 | 40 | 11 | 3.0 | 8.0 | 0.00 | 0.54 | 0.00 | 84 | 1013.3 |
| 20260506050126 | 39 | 12 | 7.0 | 8.0 | 0.00 | 0.54 | 0.00 | 84 | 1013.4 |
| 20260506045126 | 39 | 11 | 6.0 | 10.0 | 0.00 | 0.54 | 0.00 | 84 | 1013.2 |
| 20260506044126 | 39 | 13 | 6.0 | 12.0 | 0.00 | 0.54 | 0.00 | 84 | 1013.1 |
| 20260506043626 | 39 | 14 | 6.0 | 9.0 | 0.00 | 0.54 | 0.00 | 84 | 1013.0 |
| 20260506043127 | 38 | 11 | 5.0 | 8.0 | 0.00 | 0.54 | 0.00 | 84 | 1013.0 |
| 20260506042627 | 38 | 12 | 5.0 | 8.0 | 0.00 | 0.54 | 0.00 | 84 | 1013.0 |
| 20260506042126 | 39 | 11 | 6.0 | 7.0 | 0.00 | 0.54 | 0.00 | 84 | 1013.1 |
| 20260506041126 | 38 | 14 | 5.0 | 8.0 | 0.00 | 0.54 | 0.00 | 84 | 1013.2 |
| 20260506040626 | 38 | 10 | 3.0 | 7.0 | 0.00 | 0.54 | 0.00 | 84 | 1013.3 |
| 20260506040127 | 38 | 14 | 4.0 | 10.0 | 0.00 | 0.54 | 0.00 | 84 | 1013.3 |
| 20260506035626 | 38 | 15 | 3.0 | 7.0 | 0.00 | 0.54 | 0.00 | 84 | 1013.3 |
| 20260506034626 | 38 | 12 | 4.0 | 8.0 | 0.00 | 0.54 | 0.00 | 84 | 1013.5 |
| 20260506034127 | 38 | 10 | 5.0 | 9.0 | 0.00 | 0.54 | 0.00 | 84 | 1013.5 |
| 20260506033626 | 38 | 12 | 4.0 | 10.0 | 0.00 | 0.54 | 0.00 | 84 | 1013.4 |
| 20260506033126 | 38 | 14 | 5.0 | 9.0 | 0.00 | 0.54 | 0.00 | 84 | 1013.3 |
| 20260506032626 | 38 | 13 | 4.0 | 9.0 | 0.00 | 0.54 | 0.00 | 84 | 1013.4 |
| 20260506032126 | 38 | 14 | 3.0 | 12.0 | 0.00 | 0.54 | 0.00 | 84 | 1013.5 |
| 20260506031626 | 38 | 15 | 6.0 | 10.0 | 0.00 | 0.54 | 0.00 | 84 | 1013.4 |
| 20260506031126 | 38 | 18 | 5.0 | 9.0 | 0.00 | 0.54 | 0.00 | 84 | 1013.4 |
| 20260506030627 | 38 | 10 | 5.0 | 9.0 | 0.00 | 0.54 | 0.00 | 84 | 1013.3 |
| 20260506030127 | 38 | 10 | 5.0 | 13.0 | 0.00 | 0.54 | 0.00 | 84 | 1013.4 |
| 20260506025626 | 38 | 12 | 6.0 | 10.0 | 0.00 | 0.54 | 0.00 | 84 | 1013.5 |
| 20260506025126 | 38 | 11 | 6.0 | 13.0 | 0.00 | 0.54 | 0.00 | 84 | 1013.4 |
| 20260506024626 | 38 | 13 | 7.0 | 12.0 | 0.00 | 0.54 | 0.00 | 84 | 1013.4 |
| 20260506024126 | 38 | 8 | 5.0 | 13.0 | 0.00 | 0.54 | 0.00 | 84 | 1013.4 |
| 20260506023626 | 38 | 10 | 6.0 | 12.0 | 0.00 | 0.54 | 0.00 | 84 | 1013.5 |
| 20260506023126 | 38 | 12 | 3.0 | 9.0 | 0.00 | 0.54 | 0.00 | 84 | 1013.6 |
| 20260506022626 | 38 | 9 | 7.0 | 12.0 | 0.00 | 0.54 | 0.00 | 84 | 1013.5 |
| 20260506022127 | 38 | 11 | 4.0 | 9.0 | 0.00 | 0.54 | 0.00 | 84 | 1013.6 |
| 20260506021626 | 38 | 9 | 6.0 | 9.0 | 0.00 | 0.54 | 0.00 | 84 | 1013.7 |
| 20260506021126 | 38 | 15 | 5.0 | 12.0 | 0.00 | 0.54 | 0.00 | 84 | 1013.6 |
| 20260506020626 | 38 | 12 | 3.0 | 10.0 | 0.00 | 0.54 | 0.00 | 84 | 1013.6 |
| 20260506015626 | 38 | 10 | 3.0 | 9.0 | 0.00 | 0.54 | 0.00 | 84 | 1013.7 |
| 20260506015126 | 38 | 14 | 4.0 | 12.0 | 0.00 | 0.54 | 0.00 | 84 | 1013.8 |
| 20260506014626 | 39 | 17 | 4.0 | 9.0 | 0.00 | 0.54 | 0.00 | 84 | 1013.8 |
| 20260506014126 | 39 | 12 | 3.0 | 10.0 | 0.00 | 0.54 | 0.00 | 84 | 1013.9 |
| 20260506013626 | 39 | 15 | 4.0 | 10.0 | 0.00 | 0.54 | 0.00 | 84 | 1013.9 |
| 20260506013126 | 39 | 16 | 4.0 | 7.0 | 0.00 | 0.54 | 0.00 | 84 | 1013.9 |
| 20260506012626 | 39 | 11 | 6.0 | 12.0 | 0.00 | 0.54 | 0.00 | 84 | 1013.9 |
| 20260506012126 | 39 | 8 | 6.0 | 13.0 | 0.00 | 0.54 | 0.00 | 84 | 1013.9 |
| 20260506011626 | 39 | 12 | 6.0 | 9.0 | 0.00 | 0.54 | 0.00 | 84 | 1013.9 |
| 20260506011126 | 39 | 12 | 4.0 | 14.0 | 0.00 | 0.54 | 0.00 | 84 | 1013.8 |
| 20260506010626 | 39 | 10 | 6.0 | 17.0 | 0.00 | 0.54 | 0.00 | 84 | 1014.0 |
| 20260506010126 | 39 | 12 | 7.0 | 14.0 | 0.00 | 0.54 | 0.00 | 84 | 1013.9 |
| 20260506005626 | 39 | 10 | 6.0 | 14.0 | 0.00 | 0.54 | 0.00 | 84 | 1013.8 |
| 20260506005126 | 39 | 10 | 6.0 | 12.0 | 0.00 | 0.54 | 0.00 | 84 | 1013.8 |
| 20260506004627 | 39 | 7 | 6.0 | 12.0 | 0.00 | 0.54 | 0.00 | 84 | 1013.9 |
| 20260506004126 | 39 | 17 | 5.0 | 13.0 | 0.00 | 0.54 | 0.00 | 84 | 1013.8 |
| 20260506003626 | 39 | 14 | 6.0 | 12.0 | 0.00 | 0.54 | 0.00 | 83 | 1013.8 |
| 20260506003126 | 39 | 14 | 5.0 | 9.0 | 0.00 | 0.54 | 0.00 | 83 | 1013.9 |
| 20260506002626 | 39 | 12 | 6.0 | 13.0 | 0.00 | 0.54 | 0.00 | 83 | 1013.9 |
| 20260506002126 | 39 | 11 | 7.0 | 14.0 | 0.00 | 0.54 | 0.00 | 83 | 1014.0 |
| 20260506001126 | 39 | 11 | 5.0 | 12.0 | 0.00 | 0.54 | 0.00 | 83 | 1014.0 |
| 20260506000627 | 39 | 10 | 7.0 | 16.0 | 0.00 | 0.54 | 0.00 | 83 | 1014.1 |
| 20260506000126 | 39 | 16 | 7.0 | 15.0 | 0.00 | 0.54 | 0.00 | 83 | 1014.1 |
| 20260505235126 | 39 | 10 | 6.0 | 12.0 | 0.00 | 0.54 | 0.00 | 83 | 1014.1 |
| 20260505234626 | 39 | 10 | 6.0 | 12.0 | 0.00 | 0.54 | 0.00 | 83 | 1014.1 |
| 20260505234126 | 39 | 13 | 9.0 | 15.0 | 0.00 | 0.54 | 0.00 | 83 | 1014.1 |
| 20260505233626 | 39 | 8 | 6.0 | 10.0 | 0.00 | 0.54 | 0.00 | 83 | 1014.2 |
| 20260505233126 | 39 | 17 | 5.0 | 10.0 | 0.00 | 0.54 | 0.00 | 83 | 1014.2 |
| 20260505232626 | 39 | 14 | 5.0 | 12.0 | 0.00 | 0.54 | 0.00 | 83 | 1014.3 |
| 20260505232126 | 39 | 12 | 5.0 | 12.0 | 0.00 | 0.54 | 0.00 | 83 | 1014.3 |
| 20260505231626 | 39 | 18 | 5.0 | 12.0 | 0.00 | 0.54 | 0.00 | 83 | 1014.4 |
| 20260505231126 | 39 | 13 | 7.0 | 17.0 | 0.00 | 0.54 | 0.00 | 83 | 1014.3 |
| 20260505230126 | 39 | 12 | 8.0 | 13.0 | 0.00 | 0.54 | 0.00 | 83 | 1014.4 |
| 20260505225626 | 39 | 6 | 10.0 | 16.0 | 0.00 | 0.54 | 0.00 | 83 | 1014.4 |
| 20260505225126 | 39 | 12 | 10.0 | 14.0 | 0.00 | 0.54 | 0.00 | 83 | 1014.5 |
| 20260505224626 | 39 | 8 | 7.0 | 13.0 | 0.00 | 0.54 | 0.00 | 83 | 1014.5 |
| 20260505223126 | 39 | 16 | 6.0 | 13.0 | 0.00 | 0.54 | 0.00 | 83 | 1014.5 |
| 20260505222626 | 39 | 9 | 6.0 | 12.0 | 0.00 | 0.54 | 0.00 | 83 | 1014.5 |
| 20260505222126 | 39 | 7 | 4.0 | 9.0 | 0.00 | 0.54 | 0.00 | 83 | 1014.5 |
| 20260505221626 | 39 | 13 | 5.0 | 9.0 | 0.00 | 0.54 | 0.00 | 83 | 1014.5 |
| 20260505221125 | 39 | 11 | 5.0 | 10.0 | 0.00 | 0.54 | 0.00 | 83 | 1014.6 |
| 20260505220626 | 39 | 11 | 3.0 | 7.0 | 0.00 | 0.54 | 0.00 | 83 | 1014.5 |
| 20260505220126 | 39 | 8 | 3.0 | 12.0 | 0.00 | 0.54 | 0.00 | 83 | 1014.6 |
| 20260505215626 | 39 | 12 | 5.0 | 10.0 | 0.00 | 0.54 | 0.54 | 83 | 1014.6 |
| 20260505215126 | 39 | 8 | 3.0 | 7.0 | 0.00 | 0.54 | 0.54 | 83 | 1014.7 |
| 20260505214626 | 39 | 13 | 4.0 | 7.0 | 0.00 | 0.54 | 0.54 | 83 | 1014.8 |
| 20260505214126 | 39 | 13 | 3.0 | 7.0 | 0.00 | 0.54 | 0.54 | 83 | 1014.8 |
| 20260505213626 | 39 | 14 | 5.0 | 9.0 | 0.00 | 0.54 | 0.54 | 83 | 1014.7 |
| 20260505213126 | 39 | 11 | 5.0 | 9.0 | 0.00 | 0.54 | 0.54 | 83 | 1014.7 |
| 20260505212126 | 39 | 17 | 6.0 | 13.0 | 0.00 | 0.54 | 0.54 | 83 | 1014.8 |
| 20260505211626 | 39 | 12 | 3.0 | 8.0 | 0.00 | 0.54 | 0.54 | 83 | 1014.8 |
| 20260505211126 | 40 | 18 | 5.0 | 9.0 | 0.01 | 0.54 | 0.54 | 83 | 1014.8 |
| 20260505210626 | 40 | 12 | 3.0 | 12.0 | 0.01 | 0.54 | 0.54 | 83 | 1014.6 |
| 20260505210126 | 40 | 7 | 5.0 | 12.0 | 0.01 | 0.54 | 0.54 | 83 | 1014.6 |
| 20260505205626 | 40 | 8 | 2.0 | 8.0 | 0.02 | 0.54 | 0.54 | 83 | 1014.5 |
| 20260505205126 | 40 | 9 | 3.0 | 10.0 | 0.02 | 0.54 | 0.54 | 83 | 1014.5 |
| 20260505204626 | 40 | 10 | 3.0 | 7.0 | 0.02 | 0.54 | 0.54 | 83 | 1014.7 |
| 20260505204125 | 40 | 14 | 2.0 | 7.0 | 0.02 | 0.54 | 0.54 | 83 | 1014.7 |
| 20260505203626 | 40 | 10 | 5.0 | 12.0 | 0.02 | 0.54 | 0.54 | 83 | 1014.8 |
| 20260505202626 | 40 | 14 | 5.0 | 9.0 | 0.02 | 0.54 | 0.54 | 83 | 1014.7 |
| 20260505202126 | 41 | 13 | 5.0 | 8.0 | 0.02 | 0.54 | 0.54 | 83 | 1014.8 |
| 20260505201626 | 41 | 11 | 3.0 | 7.0 | 0.02 | 0.54 | 0.54 | 83 | 1014.8 |
| 20260505201126 | 41 | 8 | 4.0 | 8.0 | 0.02 | 0.53 | 0.53 | 83 | 1014.8 |
| 20260505200626 | 41 | 8 | 4.0 | 10.0 | 0.02 | 0.53 | 0.53 | 83 | 1014.8 |
| 20260505200126 | 41 | 9 | 6.0 | 10.0 | 0.02 | 0.53 | 0.53 | 83 | 1014.8 |
| 20260505195126 | 40 | 15 | 3.0 | 9.0 | 0.02 | 0.52 | 0.52 | 83 | 1014.8 |
| 20260505194626 | 40 | 12 | 5.0 | 10.0 | 0.01 | 0.51 | 0.51 | 83 | 1014.8 |
| 20260505194125 | 40 | 9 | 3.0 | 15.0 | 0.01 | 0.51 | 0.51 | 83 | 1014.7 |
| 20260505193626 | 40 | 11 | 6.0 | 12.0 | 0.01 | 0.51 | 0.51 | 83 | 1014.6 |
| 20260505193126 | 40 | 11 | 6.0 | 12.0 | 0.01 | 0.51 | 0.51 | 83 | 1014.6 |
| 20260505192626 | 41 | 11 | 3.0 | 6.0 | 0.01 | 0.51 | 0.51 | 83 | 1014.7 |
| 20260505192125 | 41 | 13 | 4.0 | 7.0 | 0.01 | 0.51 | 0.51 | 83 | 1014.7 |
| 20260505191626 | 41 | 12 | 6.0 | 8.0 | 0.01 | 0.51 | 0.51 | 83 | 1014.7 |
| 20260505190626 | 41 | 16 | 5.0 | 6.0 | 0.02 | 0.51 | 0.51 | 83 | 1014.6 |
| 20260505190126 | 41 | 18 | 3.0 | 6.0 | 0.02 | 0.51 | 0.51 | 83 | 1014.7 |
| 20260505185626 | 41 | 13 | 4.0 | 8.0 | 0.03 | 0.51 | 0.51 | 83 | 1014.6 |
| 20260505185126 | 40 | 13 | 3.0 | 7.0 | 0.02 | 0.50 | 0.50 | 83 | 1014.6 |
| 20260505184625 | 40 | 19 | 2.0 | 7.0 | 0.02 | 0.50 | 0.50 | 83 | 1014.6 |
| 20260505183625 | 40 | 13 | 6.0 | 9.0 | 0.03 | 0.50 | 0.50 | 83 | 1014.5 |
| 20260505183128 | 40 | 11 | 3.0 | 8.0 | 0.03 | 0.50 | 0.50 | 83 | 1014.4 |
| 20260505182627 | 40 | 12 | 3.0 | 10.0 | 0.03 | 0.50 | 0.50 | 83 | 1014.4 |
| 20260505182126 | 40 | 10 | 2.0 | 9.0 | 0.04 | 0.50 | 0.50 | 83 | 1014.3 |
| 20260505181626 | 40 | 16 | 4.0 | 8.0 | 0.05 | 0.50 | 0.50 | 83 | 1014.3 |
| 20260505181125 | 40 | 9 | 6.0 | 9.0 | 0.06 | 0.50 | 0.50 | 83 | 1014.3 |
| 20260505175125 | 40 | 13 | 2.0 | 6.0 | 0.06 | 0.48 | 0.48 | 83 | 1014.4 |
| 20260505174625 | 40 | 12 | 3.0 | 6.0 | 0.07 | 0.48 | 0.48 | 83 | 1014.3 |
| 20260505174125 | 40 | 7 | 5.0 | 9.0 | 0.07 | 0.47 | 0.47 | 83 | 1014.3 |
| 20260505173626 | 40 | 16 | 5.0 | 10.0 | 0.08 | 0.47 | 0.47 | 83 | 1014.2 |
| 20260505173125 | 40 | 7 | 5.0 | 8.0 | 0.09 | 0.47 | 0.47 | 83 | 1014.2 |
| 20260505172126 | 40 | 11 | 2.0 | 6.0 | 0.10 | 0.46 | 0.46 | 83 | 1014.2 |
| 20260505171626 | 40 | 12 | 5.0 | 8.0 | 0.09 | 0.46 | 0.46 | 83 | 1014.1 |
| 20260505171126 | 41 | 11 | 3.0 | 8.0 | 0.08 | 0.44 | 0.44 | 83 | 1014.1 |
| 20260505170626 | 41 | 10 | 3.0 | 6.0 | 0.07 | 0.43 | 0.43 | 83 | 1014.1 |
| 20260505170125 | 41 | 10 | 3.0 | 9.0 | 0.06 | 0.43 | 0.43 | 83 | 1014.2 |
| 20260505165625 | 40 | 14 | 2.0 | 8.0 | 0.06 | 0.42 | 0.42 | 83 | 1014.1 |
| 20260505165126 | 40 | 13 | 5.0 | 7.0 | 0.06 | 0.42 | 0.42 | 83 | 1014.1 |
| 20260505164625 | 40 | 11 | 1.0 | 7.0 | 0.06 | 0.41 | 0.41 | 83 | 1014.2 |
| 20260505164126 | 40 | 8 | 1.0 | 9.0 | 0.05 | 0.40 | 0.40 | 83 | 1014.2 |
| 20260505163626 | 40 | 14 | 3.0 | 6.0 | 0.04 | 0.39 | 0.39 | 83 | 1014.3 |
| 20260505163126 | 40 | 10 | 3.0 | 7.0 | 0.02 | 0.38 | 0.38 | 83 | 1014.3 |
| 20260505162625 | 40 | 19 | 4.0 | 8.0 | 0.02 | 0.37 | 0.37 | 83 | 1014.4 |
| 20260505162125 | 40 | 14 | 5.0 | 9.0 | 0.02 | 0.36 | 0.36 | 82 | 1014.4 |
| 20260505161625 | 40 | 9 | 6.0 | 9.0 | 0.02 | 0.36 | 0.36 | 82 | 1014.4 |
| 20260505161125 | 40 | 13 | 6.0 | 8.0 | 0.02 | 0.36 | 0.36 | 82 | 1014.4 |
| 20260505153126 | 40 | 9 | 6.0 | 9.0 | 0.02 | 0.35 | 0.35 | 82 | 1014.4 |
| 20260505152626 | 40 | 16 | 7.0 | 9.0 | 0.02 | 0.35 | 0.35 | 82 | 1014.4 |
| 20260505152125 | 40 | 10 | 6.0 | 7.0 | 0.02 | 0.35 | 0.35 | 82 | 1014.3 |
| 20260505151125 | 40 | 11 | 6.0 | 7.0 | 0.02 | 0.35 | 0.35 | 82 | 1014.2 |
| 20260505150625 | 40 | 10 | 4.0 | 7.0 | 0.01 | 0.34 | 0.34 | 82 | 1014.2 |
| 20260505150125 | 39 | 10 | 5.0 | 6.0 | 0.01 | 0.34 | 0.34 | 82 | 1014.1 |
| 20260505140625 | 39 | 15 | 1.0 | 3.0 | 0.01 | 0.33 | 0.33 | 82 | 1014.3 |
| 20260505130126 | 38 | 14 | 2.0 | 3.0 | 0.03 | 0.32 | 0.32 | 82 | 1014.3 |
| 20260505124625 | 39 | 12 | 4.0 | 8.0 | 0.03 | 0.31 | 0.31 | 82 | 1014.3 |
| 20260505124128 | 38 | 10 | 5.0 | 7.0 | 0.04 | 0.31 | 0.31 | 82 | 1014.4 |
| 20260505123625 | 38 | 13 | 3.0 | 6.0 | 0.04 | 0.31 | 0.31 | 82 | 1014.3 |
| 20260505123126 | 38 | 10 | 4.0 | 6.0 | 0.04 | 0.31 | 0.31 | 82 | 1014.4 |
| 20260505122125 | 39 | 14 | 3.0 | 7.0 | 0.03 | 0.31 | 0.31 | 82 | 1014.4 |
| 20260505121626 | 39 | 13 | 3.0 | 6.0 | 0.04 | 0.31 | 0.31 | 82 | 1014.4 |
| 20260505121125 | 39 | 11 | 2.0 | 6.0 | 0.03 | 0.30 | 0.30 | 82 | 1014.4 |
| 20260505120625 | 39 | 13 | 3.0 | 6.0 | 0.03 | 0.30 | 0.30 | 82 | 1014.4 |
| 20260505120125 | 39 | 13 | 0.0 | 3.0 | 0.03 | 0.29 | 0.29 | 82 | 1014.4 |
| 20260505115625 | 40 | 13 | 1.0 | 3.0 | 0.03 | 0.28 | 0.28 | 82 | 1014.4 |
| 20260505115125 | 39 | 13 | 1.0 | 3.0 | 0.03 | 0.28 | 0.28 | 82 | 1014.5 |
| 20260505114125 | 39 | 12 | 1.0 | 3.0 | 0.04 | 0.28 | 0.28 | 82 | 1014.4 |
| 20260505112625 | 39 | 12 | 1.0 | 3.0 | 0.06 | 0.28 | 0.28 | 82 | 1014.5 |
| 20260505112125 | 39 | 14 | 1.0 | 3.0 | 0.06 | 0.28 | 0.28 | 82 | 1014.5 |
| 20260505111626 | 38 | 15 | 5.0 | 9.0 | 0.06 | 0.27 | 0.27 | 82 | 1014.5 |
| 20260505111125 | 37 | 12 | 5.0 | 10.0 | 0.06 | 0.27 | 0.27 | 82 | 1014.6 |
| 20260505110625 | 37 | 13 | 2.0 | 5.0 | 0.06 | 0.27 | 0.27 | 82 | 1014.6 |